{"data":{"norad_id":66208,"intl_designator":"2025-244C","name":"STARLINK-35751","alt_names":[],"object_type":"PAYLOAD","status":"ACTIVE","operator":null,"country":"US","launch_date":"2025-10-28","launch_site_code":"AFWTR","launch_vehicle":null,"mission":null,"orbit_class":"UNKNOWN","rcs_meters":null,"size_class":null,"mass_kg":null,"dimensions":null,"purposes":["comms"],"wikipedia_slug":null,"has_3d_model":false,"image_url":null,"decayed_at":null,"tle_current":{"epoch":"2026-09-20T13:36:15.461568Z","epoch_age_seconds":90938,"freshness":"FRESH","line1":"1 66208U 25244C   26263.56684562  .00017854  00000+0  53812-3 0  9996","line2":"2 66208  53.1543  41.3587 0002377  70.7003 289.4257 15.34409821 51548","mean_motion":15.34409821,"eccentricity":0.0002377,"inclination_deg":53.1543,"raan_deg":41.3587,"arg_perigee_deg":70.7003,"mean_anomaly_deg":289.4257,"bstar":0.00053812,"rev_number":5154,"period_min":93.847157408151,"perigee_km":461.04798949446,"apogee_km":464.30011106777,"semimajor_km":6840.8110502811,"source":"CELESTRAK","updated_at":"2026-09-21T09:00:35.839866Z"}}}